This demonstration page uses our WeatherBlox Daily Observations layout. Learn more.

Left ArrowRight Arrow

39.29038, -76.61219

Hourly Observations for July 15, 2021

Temp ( °F °C ) Dew Point ( °F °C ) Humidity (%) Winds ( mph kmh ) Pressure ( in mb ) Visibility ( mi km ) Precip ( " mm )
12:54 am 00:54 Mostly Clear 75 23.9 70 21.1 84 84 SW 3 6 30.12 1020 10 16 N/A
1:54 am 01:54 Mostly Clear 74 23.3 69 20.6 85 85 S 3 6 30.12 1020 10 16 N/A
2:54 am 02:54 Mostly Clear 73 22.8 69 20.6 87 87 SSE 3 6 30.11 1020 10 16 N/A
3:54 am 03:54 Clear 72 22.2 68 20 87 87 SSW 3 6 30.11 1020 10 16 N/A
4:54 am 04:54 Mostly Clear 71 21.7 68 20 90 90 WSW 3 6 30.11 1020 10 16 N/A
5:54 am 05:54 Partly Cloudy 72 22.2 68 20 87 87 SW 3 6 30.11 1020 10 16 N/A
6:54 am 06:54 Mostly Cloudy 73 22.8 69 20.6 87 87 WSW 3 6 30.13 1020 10 16 N/A
7:54 am 07:54 Mostly Cloudy 77 25 70 21.1 79 79 NW 3 6 30.14 1021 10 16 N/A
8:54 am 08:54 Mostly Cloudy 80 26.7 70 21.1 71 71 N N/A 30.13 1020 10 16 N/A
9:54 am 09:54 Mostly Cloudy 84 28.9 70 21.1 63 63 N N/A 30.11 1020 10 16 N/A
10:54 am 10:54 Cloudy 87 30.6 70 21.1 57 57 VRB 3 6 30.11 1020 10 16 N/A
11:54 am 11:54 Cloudy 90 32.2 69 20.6 50 50 VRB 3 6 30.10 1019 10 16 N/A
12:54 pm 12:54 Cloudy 92 33.3 68 20 46 46 N N/A 30.09 1019 10 16 N/A
1:54 pm 13:54 Cloudy 93 33.9 67 19.4 42 42 N N/A 30.07 1018 10 16 N/A
2:54 pm 14:54 Cloudy 94 34.4 66 18.9 40 40 VRB 5 7 30.06 1018 10 16 N/A
3:54 pm 15:54 Mostly Cloudy 93 33.9 67 19.4 42 42 N N/A 30.05 1018 10 16 N/A
4:54 pm 16:54 Mostly Cloudy 91 32.8 68 20 47 47 WSW 7 11 30.04 1017 10 16 N/A
5:54 pm 17:54 Mostly Cloudy 90 32.2 73 22.8 58 58 SSE 8 13 30.01 1016 10 16 N/A
6:54 pm 18:54 Partly Cloudy 88 31.1 73 22.8 61 61 S 9 15 30.00 1016 10 16 N/A
7:54 pm 19:54 Mostly Cloudy 86 30 74 23.3 67 67 SSE 7 11 30.01 1016 10 16 N/A
8:54 pm 20:54 Partly Cloudy 85 29.4 74 23.3 70 70 S 5 7 30.00 1016 10 16 N/A
9:54 pm 21:54 Partly Cloudy 84 28.9 72 22.2 67 67 N N/A 30.01 1016 10 16 N/A
10:54 pm 22:54 Mostly Cloudy 83 28.3 71 21.7 67 67 SSW 5 7 30.02 1017 10 16 N/A
11:54 pm 23:54 Mostly Cloudy 82 27.8 71 21.7 69 69 N N/A 30.01 1016 10 16 N/A

Powered by AerisWeather